Methuen, Massachusetts, United States (01844)
Lat: 42.73N, Lon: 71.19W
Wx Zone: MAZ006
Local Info
Past Weather Observations for Wednesday, February 10, 2016

NOTE: This archive is for the closest National Weather Service station to Methuen. Information may differ from the station used for current weather conditions.

Click here for Long-term Archive

Time Weather Temperature Dewpoint Humidity Pressure Winds Precip Visibility
23:54
Clear
28°F / -2°C 19°F / -7°C 69% 29.65 in
(1004 mb)
SSW 8.1 mph
(SSW 13 kph)
- 10SM
22:54
Clear
28°F / -2°C 21°F / -6°C 74% 29.65 in
(1004 mb)
SSW 9.2 mph
(SSW 15 kph)
- 10SM
21:54
Clear
30°F / -1°C 21°F / -6°C 69% 29.62 in
(1003 mb)
SSW 10.4 mph
(SSW 17 kph)
- 10SM
20:54
Clear
30°F / -1°C 23°F / -5°C 75% 29.62 in
(1003 mb)
SSW 10.4 mph
(SSW 17 kph)
- 10SM
19:54
Mostly Cloudy
32°F / 0°C 27°F / -3°C 80% 29.62 in
(1003 mb)
SSW 8.1 mph
(SSW 13 kph)
- 10SM
18:54
Overcast
32°F / 0°C 28°F / -2°C 87% 29.62 in
(1003 mb)
S 3.5 mph
(S 6 kph)
0.00 in
(0.00 mm)
9SM
17:54
Overcast
34°F / 1°C 28°F / -2°C 81% 29.59 in
(1002 mb)
SW 3.5 mph
(SW 6 kph)
0.00 in
(0.00 mm)
8SM
16:54
Overcast
34°F / 1°C 28°F / -2°C 81% 29.59 in
(1002 mb)
SW 3.5 mph
(SW 6 kph)
- 9SM
15:54
Overcast
34°F / 1°C 28°F / -2°C 81% 29.56 in
(1001 mb)
SW 3.5 mph
(SW 6 kph)
0.00 in
(0.00 mm)
9SM
15:40
Overcast
Fog And Mist
34°F / 1°C 28°F / -2°C 81% 29.56 in
(1001 mb)
SW 3.5 mph
(SW 6 kph)
0.00 in
(0.00 mm)
4SM
15:24
Overcast
Light Snow
34°F / 1°C 28°F / -2°C 81% 29.56 in
(1001 mb)
SW 4.6 mph
(SW 7 kph)
0.00 in
(0.00 mm)
2SM
15:13
Overcast
Light Snow
34°F / 1°C 28°F / -2°C 81% 29.56 in
(1001 mb)
SW 4.6 mph
(SW 7 kph)
0.00 in
(0.00 mm)
3SM
14:54
Overcast
Light Snow
34°F / 1°C 28°F / -2°C 81% 29.56 in
(1001 mb)
SSW 4.6 mph
(SSW 7 kph)
0.00 in
(0.00 mm)
3SM
13:54
Overcast
Light Snow
34°F / 1°C 28°F / -2°C 81% 29.56 in
(1001 mb)
SW 4.6 mph
(SW 7 kph)
0.00 in
(0.00 mm)
3SM
12:54
Overcast
34°F / 1°C 27°F / -3°C 75% 29.56 in
(1001 mb)
SSW 5.8 mph
(SSW 9 kph)
- 9SM
12:22
Overcast
34°F / 1°C 27°F / -3°C 75% 29.56 in
(1001 mb)
SW 3.5 mph
(SW 6 kph)
- 9SM
11:54
Overcast
34°F / 1°C 27°F / -3°C 75% 29.59 in
(1002 mb)
SW 6.9 mph
(SW 11 kph)
0.00 in
(0.00 mm)
10SM
11:34
Overcast
Light Snow
32°F / 0°C 27°F / -3°C 80% 29.59 in
(1002 mb)
SW 6.9 mph
(SW 11 kph)
0.00 in
(0.00 mm)
4SM
11:27
Overcast
Light Snow
32°F / 0°C 27°F / -3°C 80% 29.59 in
(1002 mb)
SSE 5.8 mph
(SSE 9 kph)
0.00 in
(0.00 mm)
5SM
11:11
Overcast
Light Snow
30°F / -1°C 27°F / -3°C 86% 29.59 in
(1002 mb)
SW 5.8 mph
(SW 9 kph)
0.00 in
(0.00 mm)
5SM
10:54
Overcast
Light Snow
30°F / -1°C 27°F / -3°C 86% 29.62 in
(1003 mb)
SW 5.8 mph
(SW 9 kph)
0.00 in
(0.00 mm)
3SM
10:24
Overcast
Light Snow
28°F / -2°C 25°F / -4°C 86% 29.62 in
(1003 mb)
SW 6.9 mph
(SW 11 kph)
0.00 in
(0.00 mm)
2SM
10:08
Overcast
Light Snow
28°F / -2°C 25°F / -4°C 86% 29.62 in
(1003 mb)
SW 5.8 mph
(SW 9 kph)
0.00 in
(0.00 mm)
2 1/2SM
09:54
Overcast
Light Snow
28°F / -2°C 23°F / -5°C 80% 29.62 in
(1003 mb)
SSE 8.1 mph
(SSE 13 kph)
0.00 in
(0.00 mm)
4SM
09:40
Overcast
Light Snow
27°F / -3°C 23°F / -5°C 86% 29.62 in
(1003 mb)
SW 6.9 mph
(SW 11 kph)
0.00 in
(0.00 mm)
3SM
09:25
Overcast
Light Snow
27°F / -3°C 23°F / -5°C 86% 29.62 in
(1003 mb)
SW 6.9 mph
(SW 11 kph)
0.00 in
(0.00 mm)
2 1/2SM
08:54
Overcast
Light Snow
25°F / -4°C 21°F / -6°C 86% 29.62 in
(1003 mb)
SW 5.8 mph
(SW 9 kph)
0.00 in
(0.00 mm)
4SM
07:54
Overcast
21°F / -6°C 18°F / -8°C 86% 29.62 in
(1003 mb)
SW 3.5 mph
(SW 6 kph)
- 10SM
06:54
Overcast
19°F / -7°C 16°F / -9°C 86% 29.62 in
(1003 mb)
Calm - 10SM
05:54
Mostly Cloudy
18°F / -8°C 12°F / -11°C 79% 29.62 in
(1003 mb)
Calm - 10SM
04:54
Partly Cloudy
16°F / -9°C 12°F / -11°C 86% 29.62 in
(1003 mb)
S 3.5 mph
(S 6 kph)
- 10SM
03:54
Overcast
18°F / -8°C 14°F / -10°C 86% 29.59 in
(1002 mb)
Calm - 10SM
02:54
Overcast
18°F / -8°C 16°F / -9°C 93% 29.62 in
(1003 mb)
Calm - 10SM
01:54
Partly Cloudy
16°F / -9°C 12°F / -11°C 86% 29.62 in
(1003 mb)
Calm - 10SM
00:54
Overcast
18°F / -8°C 14°F / -10°C 86% 29.62 in
(1003 mb)
Calm - 10SM
Time Weather Temperature Dewpoint Humidity Pressure Winds Precip Visibility


Weather for websites

WeatherForYou.com, LLC is not responsible for any damages or problems caused by this service. Current weather conditions are obtained from the closest station including government and personal stations which may have varying degrees of accuracy. Weather forecasts are derived from the NOAA NDFD. Like all things, this site belongs to Jesus Christ... He just trusts us to maintain it. If you have any questions or comments email webmaster@weatherforyou.com

Copyright © 2016, WeatherForYou.com LLC. All rights reserved.